Wetterdaten: Woche 26.10.15 - 01.11.15 (KW44)
Datum Zeit Temperatur Luftfeuchte Luftdruck Niederschlag Windrichtung Sonnenschein Solar Wind
26.10.2015 00:00 8,6 C 97 % 1021,6 hPa 0,0 l/m N 0,00 h 0 W/m 0,5 km/h (0 Bft)
26.10.2015 01:00 7,2 C 97 % 1020,9 hPa 0,0 l/m N 0,00 h 0 W/m 0,0 km/h (0 Bft)
26.10.2015 02:00 7,8 C 99 % 1020,7 hPa 0,0 l/m O 0,00 h 0 W/m 5,1 km/h (1 Bft)
26.10.2015 03:00 8,5 C 98 % 1020,2 hPa 0,0 l/m O-NO 0,00 h 0 W/m 5,5 km/h (1 Bft)
26.10.2015 04:00 8,4 C 98 % 1019,7 hPa 0,0 l/m O-NO 0,00 h 0 W/m 4,4 km/h (1 Bft)
26.10.2015 05:00 7,8 C 98 % 1019,2 hPa 0,0 l/m O-NO 0,00 h 0 W/m 2,5 km/h (1 Bft)
26.10.2015 06:00 8,1 C 98 % 1018,8 hPa 0,0 l/m O-NO 0,00 h 0 W/m 7,5 km/h (2 Bft)
26.10.2015 07:00 8,1 C 97 % 1018,7 hPa 0,0 l/m O-NO 0,00 h 12 W/m 5,6 km/h (1 Bft)
26.10.2015 08:00 8,3 C 97 % 1018,9 hPa 0,0 l/m O-NO 0,00 h 28 W/m 8,6 km/h (2 Bft)
26.10.2015 09:00 8,4 C 96 % 1019,0 hPa 0,0 l/m O 0,00 h 49 W/m 9,5 km/h (2 Bft)
26.10.2015 10:00 8,7 C 95 % 1018,8 hPa 0,0 l/m O 0,00 h 85 W/m 5,4 km/h (1 Bft)
26.10.2015 11:00 9,1 C 94 % 1018,7 hPa 0,0 l/m O 0,00 h 98 W/m 7,0 km/h (2 Bft)
26.10.2015 12:00 9,5 C 92 % 1018,4 hPa 0,0 l/m O 0,00 h 124 W/m 6,8 km/h (2 Bft)
26.10.2015 13:00 10,0 C 89 % 1017,9 hPa 0,0 l/m O-NO 0,25 h 231 W/m 9,1 km/h (2 Bft)
26.10.2015 14:00 10,4 C 87 % 1017,6 hPa 0,0 l/m O-NO 0,33 h 207 W/m 10,6 km/h (2 Bft)
26.10.2015 15:00 10,6 C 88 % 1017,3 hPa 0,0 l/m O 0,25 h 110 W/m 9,8 km/h (2 Bft)
26.10.2015 16:00 9,6 C 90 % 1017,3 hPa 0,0 l/m O 0,00 h 20 W/m 11,0 km/h (2 Bft)
26.10.2015 17:00 8,6 C 93 % 1017,5 hPa 0,0 l/m O-NO 0,00 h 0 W/m 7,5 km/h (2 Bft)
26.10.2015 18:00 8,2 C 95 % 1017,5 hPa 0,0 l/m O-NO 0,00 h 0 W/m 9,1 km/h (2 Bft)
26.10.2015 19:00 7,8 C 96 % 1017,5 hPa 0,0 l/m O-NO 0,00 h 0 W/m 7,3 km/h (2 Bft)
26.10.2015 20:00 7,6 C 97 % 1017,3 hPa 0,0 l/m O-NO 0,00 h 0 W/m 6,4 km/h (2 Bft)
26.10.2015 21:00 7,7 C 98 % 1017,2 hPa 0,0 l/m O-NO 0,00 h 0 W/m 1,3 km/h (1 Bft)
26.10.2015 22:00 7,7 C 98 % 1017,3 hPa 0,0 l/m N 0,00 h 0 W/m 0,7 km/h (0 Bft)
26.10.2015 23:00 7,7 C 99 % 1017,2 hPa 0,0 l/m N 0,00 h 0 W/m 0,3 km/h (0 Bft)
27.10.2015 00:00 7,7 C 99 % 1016,9 hPa 0,0 l/m N 0,00 h 0 W/m 0,1 km/h (0 Bft)
27.10.2015 01:00 7,6 C 99 % 1016,8 hPa 0,0 l/m O-NO 0,00 h 0 W/m 0,4 km/h (0 Bft)
27.10.2015 02:00 7,4 C 99 % 1016,7 hPa 0,0 l/m N 0,00 h 0 W/m 0,9 km/h (0 Bft)
27.10.2015 03:00 7,2 C 99 % 1016,3 hPa 0,2 l/m O-NO 0,00 h 0 W/m 0,4 km/h (0 Bft)
27.10.2015 04:00 7,2 C 99 % 1016,3 hPa 0,0 l/m N 0,00 h 0 W/m 0,7 km/h (0 Bft)
27.10.2015 05:00 7,1 C 100 % 1016,4 hPa 0,0 l/m O-NO 0,00 h 0 W/m 0,7 km/h (0 Bft)
27.10.2015 06:00 7,0 C 99 % 1016,5 hPa 0,0 l/m N 0,00 h 0 W/m 0,3 km/h (0 Bft)
27.10.2015 07:00 6,9 C 100 % 1016,7 hPa 0,0 l/m O-NO 0,00 h 7 W/m 3,1 km/h (1 Bft)
27.10.2015 08:00 6,8 C 100 % 1017,2 hPa 0,0 l/m O 0,00 h 20 W/m 5,9 km/h (2 Bft)
27.10.2015 09:00 6,7 C 100 % 1017,3 hPa 0,0 l/m S-SO 0,00 h 43 W/m 5,2 km/h (1 Bft)
27.10.2015 10:00 6,8 C 100 % 1017,4 hPa 0,0 l/m SW 0,00 h 57 W/m 5,3 km/h (1 Bft)
27.10.2015 11:00 7,1 C 99 % 1017,2 hPa 0,0 l/m SW 0,00 h 74 W/m 1,5 km/h (1 Bft)
27.10.2015 12:00 7,7 C 97 % 1016,5 hPa 0,0 l/m SW 0,00 h 91 W/m 3,5 km/h (1 Bft)
27.10.2015 13:00 8,3 C 94 % 1016,1 hPa 0,0 l/m S 0,00 h 131 W/m 3,2 km/h (1 Bft)
27.10.2015 14:00 8,9 C 92 % 1015,6 hPa 0,0 l/m W 0,42 h 212 W/m 5,6 km/h (1 Bft)
27.10.2015 15:00 8,9 C 93 % 1015,3 hPa 0,0 l/m W 0,00 h 93 W/m 4,8 km/h (1 Bft)
27.10.2015 16:00 8,7 C 94 % 1015,2 hPa 0,0 l/m W 0,00 h 30 W/m 2,5 km/h (1 Bft)
27.10.2015 17:00 8,1 C 95 % 1015,1 hPa 0,0 l/m W-NW 0,00 h 5 W/m 2,5 km/h (1 Bft)
27.10.2015 18:00 7,4 C 97 % 1015,2 hPa 0,0 l/m W-NW 0,00 h 0 W/m 1,1 km/h (0 Bft)
27.10.2015 19:00 8,5 C 95 % 1015,2 hPa 0,0 l/m W-NW 0,00 h 0 W/m 2,5 km/h (1 Bft)
27.10.2015 20:00 7,9 C 95 % 1014,9 hPa 0,0 l/m W-NW 0,00 h 0 W/m 2,3 km/h (1 Bft)
27.10.2015 21:00 7,2 C 97 % 1014,5 hPa 0,0 l/m NW 0,00 h 0 W/m 2,8 km/h (1 Bft)
27.10.2015 22:00 6,8 C 98 % 1014,3 hPa 0,0 l/m NW 0,00 h 0 W/m 3,6 km/h (1 Bft)
27.10.2015 23:00 6,3 C 98 % 1014,2 hPa 0,0 l/m N 0,00 h 0 W/m 1,7 km/h (1 Bft)
28.10.2015 00:00 6,3 C 99 % 1013,9 hPa 0,0 l/m N-NW 0,00 h 0 W/m 2,9 km/h (1 Bft)
28.10.2015 01:00 5,9 C 99 % 1013,7 hPa 0,0 l/m N-NO 0,00 h 0 W/m 3,9 km/h (1 Bft)
28.10.2015 02:00 5,5 C 99 % 1013,1 hPa 0,0 l/m N-NO 0,00 h 0 W/m 5,1 km/h (1 Bft)
28.10.2015 03:00 5,2 C 99 % 1012,5 hPa 0,0 l/m NO 0,00 h 0 W/m 3,3 km/h (1 Bft)
28.10.2015 04:00 5,1 C 99 % 1012,2 hPa 0,2 l/m NO 0,00 h 0 W/m 3,1 km/h (1 Bft)
28.10.2015 05:00 5,0 C 99 % 1012,1 hPa 0,0 l/m N 0,00 h 0 W/m 0,4 km/h (0 Bft)
28.10.2015 06:00 4,7 C 99 % 1012,3 hPa 0,0 l/m NO 0,00 h 0 W/m 1,1 km/h (0 Bft)
28.10.2015 07:00 4,5 C 99 % 1012,4 hPa 0,0 l/m N 0,00 h 13 W/m 1,1 km/h (0 Bft)
28.10.2015 08:00 4,8 C 99 % 1012,5 hPa 0,0 l/m NO 0,00 h 36 W/m 1,2 km/h (1 Bft)
28.10.2015 09:00 5,3 C 99 % 1012,4 hPa 0,0 l/m NO 0,00 h 37 W/m 4,0 km/h (1 Bft)
28.10.2015 10:00 5,6 C 100 % 1011,6 hPa 0,0 l/m NO 0,00 h 52 W/m 0,9 km/h (0 Bft)
28.10.2015 11:00 6,0 C 100 % 1011,6 hPa 0,0 l/m N 0,00 h 83 W/m 1,9 km/h (1 Bft)
28.10.2015 12:00 7,5 C 99 % 1011,2 hPa 0,0 l/m NO 0,33 h 294 W/m 4,9 km/h (1 Bft)
28.10.2015 13:00 9,8 C 91 % 1010,8 hPa 0,0 l/m NO 1,00 h 432 W/m 5,7 km/h (1 Bft)
28.10.2015 14:00 11,9 C 83 % 1010,1 hPa 0,0 l/m NO 1,00 h 349 W/m 6,3 km/h (2 Bft)
28.10.2015 15:00 12,2 C 82 % 1009,8 hPa 0,0 l/m O-NO 1,00 h 213 W/m 7,5 km/h (2 Bft)
28.10.2015 16:00 11,1 C 85 % 1009,8 hPa 0,0 l/m O-NO 0,58 h 58 W/m 7,2 km/h (2 Bft)
28.10.2015 17:00 9,8 C 86 % 1009,9 hPa 0,0 l/m NO 0,00 h 6 W/m 5,3 km/h (1 Bft)
28.10.2015 18:00 8,3 C 89 % 1010,0 hPa 0,0 l/m N-NO 0,00 h 0 W/m 4,4 km/h (1 Bft)
28.10.2015 19:00 7,0 C 92 % 1010,5 hPa 0,0 l/m N 0,00 h 0 W/m 8,2 km/h (2 Bft)
28.10.2015 20:00 6,2 C 94 % 1010,7 hPa 0,0 l/m N 0,00 h 0 W/m 0,9 km/h (0 Bft)
28.10.2015 21:00 5,8 C 95 % 1011,3 hPa 0,0 l/m N 0,00 h 0 W/m 0,8 km/h (0 Bft)
28.10.2015 22:00 5,6 C 95 % 1012,0 hPa 0,0 l/m N 0,00 h 0 W/m 1,9 km/h (1 Bft)
28.10.2015 23:00 5,4 C 96 % 1012,4 hPa 0,0 l/m N 0,00 h 0 W/m 0,0 km/h (0 Bft)
29.10.2015 00:00 5,8 C 97 % 1012,8 hPa 0,0 l/m N 0,00 h 0 W/m 0,9 km/h (0 Bft)
29.10.2015 01:00 6,2 C 97 % 1013,2 hPa 0,0 l/m N 0,00 h 0 W/m 2,4 km/h (1 Bft)
29.10.2015 02:00 6,7 C 98 % 1013,7 hPa 0,4 l/m N 0,00 h 0 W/m 0,9 km/h (0 Bft)
29.10.2015 03:00 7,0 C 98 % 1013,9 hPa 2,8 l/m N 0,00 h 0 W/m 0,9 km/h (0 Bft)
29.10.2015 04:00 7,3 C 98 % 1014,3 hPa 2,0 l/m N 0,00 h 0 W/m 1,1 km/h (0 Bft)
29.10.2015 05:00 7,7 C 98 % 1014,8 hPa 2,6 l/m N 0,00 h 0 W/m 0,0 km/h (0 Bft)
29.10.2015 06:00 8,1 C 98 % 1015,4 hPa 1,4 l/m N 0,00 h 0 W/m 0,0 km/h (0 Bft)
29.10.2015 07:00 8,3 C 98 % 1016,2 hPa 0,8 l/m N 0,00 h 9 W/m 0,0 km/h (0 Bft)
29.10.2015 08:00 8,6 C 99 % 1016,9 hPa 0,8 l/m N 0,00 h 22 W/m 0,1 km/h (0 Bft)
29.10.2015 09:00 9,0 C 99 % 1017,3 hPa 0,2 l/m N 0,00 h 24 W/m 0,0 km/h (0 Bft)
29.10.2015 10:00 9,4 C 99 % 1017,8 hPa 0,2 l/m N 0,00 h 39 W/m 2,4 km/h (1 Bft)
29.10.2015 11:00 9,8 C 99 % 1018,0 hPa 0,0 l/m N-NW 0,00 h 59 W/m 2,1 km/h (1 Bft)
29.10.2015 12:00 10,4 C 99 % 1018,3 hPa 0,0 l/m N-NW 0,00 h 82 W/m 3,3 km/h (1 Bft)
29.10.2015 13:00 10,7 C 97 % 1018,6 hPa 0,0 l/m N-NW 0,00 h 47 W/m 6,1 km/h (2 Bft)
29.10.2015 14:00 10,4 C 96 % 1019,1 hPa 0,0 l/m N-NW 0,00 h 33 W/m 2,1 km/h (1 Bft)
29.10.2015 15:00 10,5 C 97 % 1019,4 hPa 0,0 l/m N 0,00 h 37 W/m 0,0 km/h (0 Bft)
29.10.2015 16:00 10,7 C 97 % 1020,0 hPa 0,0 l/m N 0,00 h 14 W/m 0,0 km/h (0 Bft)
29.10.2015 17:00 10,5 C 97 % 1020,5 hPa 0,0 l/m N 0,00 h 0 W/m 0,0 km/h (0 Bft)
29.10.2015 18:00 10,2 C 97 % 1020,7 hPa 0,0 l/m N 0,00 h 0 W/m 0,0 km/h (0 Bft)
29.10.2015 19:00 9,6 C 97 % 1021,0 hPa 0,0 l/m N 0,00 h 0 W/m 0,0 km/h (0 Bft)
29.10.2015 20:00 8,8 C 97 % 1021,2 hPa 0,0 l/m N 0,00 h 0 W/m 0,3 km/h (0 Bft)
29.10.2015 21:00 8,3 C 97 % 1021,4 hPa 0,0 l/m N 0,00 h 0 W/m 0,1 km/h (0 Bft)
29.10.2015 22:00 8,7 C 98 % 1021,4 hPa 0,0 l/m N 0,00 h 0 W/m 2,9 km/h (1 Bft)
29.10.2015 23:00 9,1 C 98 % 1021,5 hPa 0,0 l/m N-NO 0,00 h 0 W/m 7,6 km/h (2 Bft)
30.10.2015 00:00 9,0 C 98 % 1021,8 hPa 0,0 l/m NO 0,00 h 0 W/m 9,0 km/h (2 Bft)
30.10.2015 01:00 8,8 C 98 % 1022,2 hPa 0,0 l/m O-NO 0,00 h 0 W/m 9,4 km/h (2 Bft)
30.10.2015 02:00 8,7 C 98 % 1022,3 hPa 0,0 l/m O-NO 0,00 h 0 W/m 9,2 km/h (2 Bft)
30.10.2015 03:00 8,5 C 98 % 1022,5 hPa 0,0 l/m O-NO 0,00 h 0 W/m 10,2 km/h (2 Bft)
30.10.2015 04:00 8,3 C 98 % 1022,3 hPa 0,0 l/m O-NO 0,00 h 0 W/m 10,1 km/h (2 Bft)
30.10.2015 05:00 8,2 C 97 % 1022,4 hPa 0,0 l/m O 0,00 h 0 W/m 10,1 km/h (2 Bft)
30.10.2015 06:00 7,9 C 97 % 1022,5 hPa 0,0 l/m O-NO 0,00 h 0 W/m 8,4 km/h (2 Bft)
30.10.2015 07:00 7,7 C 98 % 1022,8 hPa 0,0 l/m O-NO 0,00 h 9 W/m 7,8 km/h (2 Bft)
30.10.2015 08:00 7,7 C 98 % 1023,3 hPa 0,0 l/m O-NO 0,00 h 21 W/m 6,8 km/h (2 Bft)
30.10.2015 09:00 7,9 C 98 % 1023,7 hPa 0,0 l/m O 0,00 h 32 W/m 10,1 km/h (2 Bft)
30.10.2015 10:00 8,1 C 98 % 1024,0 hPa 0,0 l/m O-SO 0,00 h 53 W/m 12,1 km/h (2 Bft)
30.10.2015 11:00 8,4 C 97 % 1024,3 hPa 0,0 l/m O-SO 0,00 h 58 W/m 9,7 km/h (2 Bft)
30.10.2015 12:00 8,8 C 96 % 1024,3 hPa 0,0 l/m O 0,00 h 61 W/m 9,0 km/h (2 Bft)
30.10.2015 13:00 8,9 C 95 % 1024,3 hPa 0,0 l/m O 0,00 h 42 W/m 8,6 km/h (2 Bft)
30.10.2015 14:00 9,1 C 95 % 1024,4 hPa 0,0 l/m O 0,00 h 29 W/m 6,8 km/h (2 Bft)
30.10.2015 15:00 9,1 C 94 % 1024,6 hPa 0,0 l/m O 0,00 h 17 W/m 7,6 km/h (2 Bft)
30.10.2015 16:00 8,9 C 94 % 1024,8 hPa 0,0 l/m O-NO 0,00 h 6 W/m 7,8 km/h (2 Bft)
30.10.2015 17:00 8,7 C 95 % 1024,9 hPa 0,0 l/m O 0,00 h 0 W/m 10,2 km/h (2 Bft)
30.10.2015 18:00 8,6 C 95 % 1025,5 hPa 0,0 l/m O 0,00 h 0 W/m 10,5 km/h (2 Bft)
30.10.2015 19:00 8,3 C 95 % 1025,7 hPa 0,0 l/m O 0,00 h 0 W/m 13,6 km/h (3 Bft)
30.10.2015 20:00 8,3 C 95 % 1025,7 hPa 0,0 l/m O-SO 0,00 h 0 W/m 14,2 km/h (3 Bft)
30.10.2015 21:00 8,2 C 96 % 1025,4 hPa 0,0 l/m O-SO 0,00 h 0 W/m 8,4 km/h (2 Bft)
30.10.2015 22:00 8,0 C 96 % 1025,1 hPa 0,0 l/m O-SO 0,00 h 0 W/m 8,6 km/h (2 Bft)
30.10.2015 23:00 8,0 C 96 % 1024,9 hPa 0,0 l/m O 0,00 h 0 W/m 11,1 km/h (2 Bft)
31.10.2015 00:00 7,9 C 97 % 1024,8 hPa 0,0 l/m O-NO 0,00 h 0 W/m 13,3 km/h (3 Bft)
31.10.2015 01:00 7,6 C 97 % 1024,8 hPa 0,0 l/m O 0,00 h 0 W/m 13,3 km/h (3 Bft)
31.10.2015 02:00 7,3 C 97 % 1024,8 hPa 0,0 l/m O-NO 0,00 h 0 W/m 12,2 km/h (2 Bft)
31.10.2015 03:00 7,2 C 97 % 1024,4 hPa 0,0 l/m O 0,00 h 0 W/m 10,8 km/h (2 Bft)
31.10.2015 04:00 7,1 C 98 % 1024,5 hPa 0,0 l/m O-SO 0,00 h 0 W/m 10,9 km/h (2 Bft)
31.10.2015 05:00 7,0 C 98 % 1024,6 hPa 0,0 l/m O-NO 0,00 h 0 W/m 12,0 km/h (2 Bft)
31.10.2015 06:00 6,9 C 98 % 1024,7 hPa 0,0 l/m O 0,00 h 0 W/m 10,8 km/h (2 Bft)
31.10.2015 07:00 6,9 C 98 % 1025,2 hPa 0,0 l/m O 0,00 h 8 W/m 10,2 km/h (2 Bft)
31.10.2015 08:00 7,0 C 98 % 1025,6 hPa 0,0 l/m O 0,00 h 19 W/m 8,1 km/h (2 Bft)
31.10.2015 09:00 7,2 C 98 % 1026,0 hPa 0,0 l/m O 0,00 h 41 W/m 6,7 km/h (2 Bft)
31.10.2015 10:00 7,7 C 98 % 1026,2 hPa 0,0 l/m O 0,00 h 61 W/m 7,5 km/h (2 Bft)
31.10.2015 11:00 8,1 C 98 % 1026,5 hPa 0,0 l/m O 0,00 h 81 W/m 6,4 km/h (2 Bft)
31.10.2015 12:00 8,7 C 95 % 1026,3 hPa 0,0 l/m O 0,00 h 96 W/m 7,8 km/h (2 Bft)
31.10.2015 13:00 9,1 C 94 % 1026,2 hPa 0,0 l/m O 0,00 h 75 W/m 5,2 km/h (1 Bft)
31.10.2015 14:00 9,2 C 93 % 1026,1 hPa 0,0 l/m O 0,00 h 60 W/m 6,4 km/h (2 Bft)
31.10.2015 15:00 9,2 C 93 % 1026,2 hPa 0,0 l/m O 0,00 h 45 W/m 1,2 km/h (1 Bft)
31.10.2015 16:00 9,1 C 93 % 1026,5 hPa 0,0 l/m O 0,00 h 12 W/m 6,8 km/h (2 Bft)
31.10.2015 17:00 8,6 C 94 % 1027,0 hPa 0,0 l/m O 0,00 h 0 W/m 7,0 km/h (2 Bft)
31.10.2015 18:00 8,2 C 95 % 1027,5 hPa 0,0 l/m O 0,00 h 0 W/m 8,3 km/h (2 Bft)
31.10.2015 19:00 7,8 C 96 % 1027,8 hPa 0,0 l/m O 0,00 h 0 W/m 4,7 km/h (1 Bft)
31.10.2015 20:00 7,7 C 97 % 1027,9 hPa 0,0 l/m O 0,00 h 0 W/m 3,3 km/h (1 Bft)
31.10.2015 21:00 7,6 C 97 % 1028,1 hPa 0,0 l/m N 0,00 h 0 W/m 1,3 km/h (1 Bft)
31.10.2015 22:00 7,6 C 98 % 1028,4 hPa 0,0 l/m N 0,00 h 0 W/m 0,5 km/h (0 Bft)
31.10.2015 23:00 7,5 C 98 % 1028,5 hPa 0,0 l/m O 0,00 h 0 W/m 0,7 km/h (0 Bft)
01.11.2015 00:00 7,4 C 98 % 1028,6 hPa 0,0 l/m N 0,00 h 0 W/m 0,0 km/h (0 Bft)
01.11.2015 01:00 7,3 C 98 % 1028,6 hPa 0,0 l/m N 0,00 h 0 W/m 0,4 km/h (0 Bft)
01.11.2015 02:00 7,2 C 98 % 1028,7 hPa 0,2 l/m O-SO 0,00 h 0 W/m 2,0 km/h (1 Bft)
01.11.2015 03:00 6,9 C 98 % 1028,6 hPa 0,0 l/m O-SO 0,00 h 0 W/m 1,5 km/h (1 Bft)
01.11.2015 04:00 6,8 C 98 % 1028,7 hPa 0,0 l/m O-SO 0,00 h 0 W/m 2,4 km/h (1 Bft)
01.11.2015 05:00 6,6 C 99 % 1028,9 hPa 0,0 l/m SO 0,00 h 0 W/m 5,2 km/h (1 Bft)
01.11.2015 06:00 6,0 C 98 % 1029,2 hPa 0,0 l/m S 0,00 h 0 W/m 6,3 km/h (2 Bft)
01.11.2015 07:00 5,6 C 99 % 1029,9 hPa 0,0 l/m W 0,00 h 9 W/m 7,9 km/h (2 Bft)
01.11.2015 08:00 6,0 C 99 % 1030,3 hPa 0,0 l/m SW 0,00 h 27 W/m 8,4 km/h (2 Bft)
01.11.2015 09:00 6,4 C 99 % 1030,5 hPa 0,0 l/m SW 0,00 h 48 W/m 11,8 km/h (2 Bft)
01.11.2015 10:00 6,3 C 99 % 1030,5 hPa 0,0 l/m W-SW 0,00 h 87 W/m 7,1 km/h (2 Bft)
01.11.2015 11:00 6,5 C 99 % 1030,5 hPa 0,0 l/m W-SW 0,00 h 91 W/m 3,1 km/h (1 Bft)
01.11.2015 12:00 7,2 C 98 % 1030,0 hPa 0,0 l/m N 0,00 h 117 W/m 0,8 km/h (0 Bft)
01.11.2015 13:00 7,7 C 96 % 1029,7 hPa 0,0 l/m W-SW 0,00 h 116 W/m 3,2 km/h (1 Bft)
01.11.2015 14:00 7,9 C 95 % 1029,3 hPa 0,0 l/m W-NW 0,00 h 134 W/m 5,5 km/h (1 Bft)
01.11.2015 15:00 8,3 C 95 % 1029,1 hPa 0,0 l/m NW 0,00 h 50 W/m 4,9 km/h (1 Bft)
01.11.2015 16:00 8,4 C 96 % 1029,0 hPa 0,0 l/m N-NO 0,00 h 15 W/m 8,4 km/h (2 Bft)
01.11.2015 17:00 8,0 C 97 % 1029,0 hPa 0,0 l/m N-NO 0,00 h 0 W/m 8,4 km/h (2 Bft)
01.11.2015 18:00 7,5 C 97 % 1029,0 hPa 0,0 l/m NO 0,00 h 0 W/m 8,8 km/h (2 Bft)
01.11.2015 19:00 7,1 C 97 % 1029,0 hPa 0,0 l/m N-NO 0,00 h 0 W/m 8,3 km/h (2 Bft)
01.11.2015 20:00 6,6 C 98 % 1028,8 hPa 0,0 l/m N-NO 0,00 h 0 W/m 7,2 km/h (2 Bft)
01.11.2015 21:00 6,1 C 98 % 1028,6 hPa 0,0 l/m N 0,00 h 0 W/m 0,4 km/h (0 Bft)
01.11.2015 22:00 5,8 C 98 % 1028,3 hPa 0,0 l/m N 0,00 h 0 W/m 1,5 km/h (1 Bft)
01.11.2015 23:00 5,7 C 98 % 1028,4 hPa 0,0 l/m N-NO 0,00 h 0 W/m 2,5 km/h (1 Bft)
Min-Datum _ 28.10.15 28.10.15 28.10.15 - - - - 26.10.15
_ Min-Zeit 07:15 14:40 15:50 - - - - 00:05
Minimum _ 4,4 C 80 % 1009,6 hPa - - - - 0,0 km/h (0 Bft)
Max-Datum _ 28.10.15 27.10.15 01.11.15 29.10.15 - 26.10.15 28.10.15 30.10.15
_ Max-Zeit 15:00 04:40 09:40 03:10 - 13:15 12:45 10:00
Maximum _ 12,7 C 100 % 1030,7 hPa 2,8 l/m - 0,08 h 613 W/m 19,3 km/h
O-SO (3 Bft)
Durchschnitt _ 7,8 C 97 % 1020,5 hPa #11,8 l/m O #5:10 h 72 W/m 5,0 km/h (1 Bft)